Location: Lake Crest
(37.6062°N, 88.9176°W)
Time: 17:25:31
(UTC+00:00)

PSLV R/B - Pass Details

Date: 15 December 2019
Orbit: 504 x 580 km, 97.8° (Epoch: 21 January)

Event Time Altitude Azimuth Distance (km) Brightness Sun altitude
Rises 11:05:44 0° 9° (N) 2,804 7.4 -22.5°
Reaches altitude 10° 11:07:54 10° 7° (N) 1,902 6.5 -22.1°
Maximum altitude 11:12:01 71° 285° (WNW) 615 3.7 -21.3°
Drops below altitude 10° 11:16:05 10° 201° (SSW) 1,877 6.5 -20.5°
Sets 11:18:12 0° 199° (SSW) 2,763 7.4 -20.1°
